Precipitable_Water
1.29 1.39 1.52 1.54 1.54 1.52 1.56 1.53 1.58 1.54 1.56 1.69 1.74 1.59 1.46 1.43 1.33 1.32 1.27 1.14 0.92 0.83 0.80 0.79 0.80 0.81 0.82 0.80 0.81 0.90 0.86 0.87
1.24 1.36 1.48 1.52 1.58 1.63 1.55 1.53 1.58 1.61 1.67 1.66 1.75 1.61 1.45 1.35 1.36 1.39 1.13 1.08 0.92 0.88 0.83 0.82 0.80 0.78 0.79 0.82 0.83 0.87 0.89 0.87
1.20 1.31 1.41 1.51 1.57 1.61 1.61 1.51 1.58 1.54 1.59 1.63 1.67 1.60 1.51 1.37 1.40 1.30 1.09 1.02 0.95 0.87 0.90 0.87 0.84 0.83 0.85 0.83 0.89 0.90 0.89 0.90
1.10 1.24 1.36 1.53 1.58 1.57 1.59 1.68 1.59 1.61 1.64 1.66 1.67 1.63 1.49 1.48 1.41 1.24 1.10 1.04 0.97 0.96 0.96 0.91 0.89 0.86 0.85 0.86 0.90 0.92 0.91 0.87
1.05 1.21 1.32 1.43 1.56 1.58 1.60 1.62 1.63 1.64 1.64 1.67 1.64 1.62 1.49 1.44 1.31 1.30 1.14 1.02 1.01 1.02 0.97 0.95 0.92 0.87 0.85 0.89 0.90 0.92 0.94 0.93
1.05 1.26 1.34 1.37 1.51 1.55 1.57 1.58 1.59 1.63 1.62 1.70 1.63 1.53 1.44 1.34 1.20 1.17 1.06 1.06 1.06 1.06 1.01 1.00 0.93 0.90 0.91 0.91 0.91 0.92 0.93 0.96
1.03 1.27 1.28 1.34 1.45 1.52 1.54 1.53 1.57 1.60 1.56 1.61 1.56 1.40 1.35 1.21 1.14 1.16 1.08 1.12 1.13 1.08 1.05 0.98 0.90 0.88 0.90 0.91 0.88 0.88 0.92 0.91
1.00 1.19 1.26 1.30 1.38 1.47 1.44 1.48 1.51 1.53 1.55 1.52 1.46 1.42 1.25 1.11 1.06 1.15 1.14 1.18 1.20 1.10 1.01 0.94 0.88 0.88 0.87 0.87 0.85 0.83 0.83 0.86
0.97 1.13 1.25 1.26 1.34 1.38 1.36 1.46 1.46 1.51 1.49 1.45 1.39 1.29 1.15 1.02 0.98 1.02 1.03 1.10 1.11 1.04 1.00 0.93 0.91 0.87 0.83 0.83 0.85 0.83 0.82 0.82
0.99 1.11 1.22 1.26 1.30 1.35 1.37 1.41 1.45 1.45 1.39 1.33 1.26 1.14 0.99 0.95 0.95 0.95 1.00 1.05 1.04 1.03 0.96 0.92 0.87 0.82 0.80 0.79 0.79 0.81 0.81 0.80
0.98 1.11 1.22 1.25 1.31 1.36 1.39 1.39 1.36 1.36 1.30 1.24 1.10 1.01 0.95 0.91 0.91 1.00 1.01 0.95 0.95 0.94 0.93 0.88 0.83 0.81 0.77 0.74 0.74 0.75 0.79 0.80
1.02 1.20 1.25 1.27 1.30 1.37 1.37 1.37 1.33 1.29 1.22 1.10 0.97 0.88 0.97 1.02 1.05 1.07 1.02 0.99 0.97 0.94 0.94 0.92 0.89 0.85 0.78 0.76 0.77 0.78 0.80 0.83
1.04 1.21 1.24 1.26 1.26 1.27 1.29 1.24 1.26 1.26 1.20 1.10 1.05 1.09 1.04 1.08 1.08 1.06 1.02 1.02 1.03 1.06 1.03 0.98 0.94 0.97 0.87 0.87 0.92 0.94 0.92 0.91
1.06 1.21 1.26 1.27 1.33 1.35 1.33 1.34 1.25 1.23 1.20 1.18 1.18 1.12 1.03 1.04 1.05 1.03 1.05 1.09 1.12 1.09 1.08 1.03 1.02 1.00 0.95 0.96 0.85 0.88 0.93 0.94
1.00 1.17 1.29 1.33 1.35 1.38 1.36 1.34 1.29 1.22 1.17 1.16 1.17 1.19 1.10 1.07 1.07 1.09 1.10 1.13 1.10 1.09 1.09 1.06 0.98 1.02 1.00 0.94 0.85 0.81 0.93 0.95
0.96 1.10 1.20 1.30 1.36 1.32 1.27 1.21 1.13 1.22 1.20 1.18 1.22 1.22 1.17 1.11 1.09 1.12 1.11 1.06 1.03 1.04 1.04 1.00 0.97 0.89 0.93 0.93 0.95 0.95 0.81 0.84
0.88 1.01 1.12 1.22 1.30 1.32 1.28 1.22 1.19 1.23 1.20 1.14 1.16 1.19 1.20 1.13 1.13 1.12 1.04 1.02 0.99 0.98 0.97 0.97 0.96 0.94 0.92 0.90 0.87 0.87 0.89 0.86
0.80 0.89 0.98 1.13 1.23 1.30 1.28 1.24 1.20 1.18 1.15 1.07 1.07 1.10 1.13 1.15 1.11 1.04 1.00 0.97 0.95 0.99 1.01 1.00 0.98 0.98 0.97 0.95 0.91 0.84 0.84 0.90
0.72 0.78 0.83 0.97 1.08 1.17 1.21 1.19 1.18 1.13 1.10 1.01 0.99 1.01 0.97 1.03 1.04 0.98 0.98 0.99 1.00 1.04 1.05 1.03 1.03 1.00 0.98 0.97 1.00 0.97 1.02 1.03
0.67 0.71 0.76 0.88 0.93 0.98 1.05 1.10 1.11 1.08 1.09 1.03 0.99 0.96 0.95 1.04 1.06 1.06 1.04 1.03 1.03 1.06 1.04 1.04 1.04 1.01 1.00 1.01 1.01 1.02 1.01 0.99
Wind_Speed
16 16 16 16 21 24 25 22 21 20 15 34 31 29 28 27 25 25 22 21 21 19 17 15 14 12 11 10 9 7 6 6
16 17 16 15 18 27 24 21 20 19 17 27 30 27 28 28 27 26 24 23 22 20 17 16 14 12 11 10 8 7 6 6
16 16 17 16 14 25 25 24 22 21 23 27 33 29 29 29 27 27 26 25 22 20 18 16 14 13 11 10 8 7 7 6
15 16 16 17 16 21 24 23 24 23 23 30 36 33 29 27 28 28 27 25 22 21 18 16 14 13 12 10 8 8 7 7
15 16 16 16 17 18 20 22 22 22 24 39 37 36 32 28 28 27 28 26 23 21 19 16 14 13 12 10 9 8 8 8
14 14 16 17 18 19 20 20 21 23 21 31 38 38 33 29 27 27 29 27 24 22 19 16 14 13 12 10 10 9 9 10
12 12 16 17 18 18 20 20 21 25 24 32 41 38 34 30 29 27 29 27 24 23 19 17 15 13 11 11 10 10 10 10
11 11 14 16 17 18 19 19 21 23 28 36 39 37 34 30 31 29 29 27 25 22 20 17 15 14 12 11 10 10 10 10
11 11 14 15 16 16 15 17 18 25 29 33 35 35 34 32 30 30 29 26 24 23 20 17 15 14 12 12 11 11 11 11
11 11 13 14 15 16 15 14 20 25 29 31 32 33 33 32 31 30 29 25 24 21 19 18 16 14 13 12 12 12 12 12
11 11 13 14 14 16 16 18 20 26 27 27 30 33 33 33 29 29 27 26 24 21 19 18 16 15 13 12 12 13 13 13
11 11 14 15 14 17 20 21 18 25 25 27 30 32 30 29 28 28 26 23 23 21 19 17 15 14 13 13 13 13 14 14
10 12 15 15 16 19 20 22 20 21 26 28 29 29 28 28 27 26 25 24 22 20 18 17 15 15 13 14 14 14 15 15
8 11 16 17 18 18 20 21 21 21 23 27 30 28 28 27 25 25 25 23 22 20 18 17 17 16 14 13 13 14 17 18
8 10 15 18 18 19 20 22 22 22 23 26 28 27 27 27 25 23 23 23 21 20 20 19 17 16 17 14 13 14 13 16
8 10 13 17 20 19 20 23 25 23 24 25 27 27 26 26 25 23 23 22 21 21 20 19 18 16 17 18 19 18 17 17
9 10 11 14 19 22 22 23 25 24 24 26 27 26 26 26 25 25 23 22 21 20 20 19 19 19 18 18 20 22 22 23
10 10 12 13 15 21 22 24 24 25 26 28 28 27 26 25 25 25 23 22 22 21 20 20 20 20 21 21 22 22 23 24
12 12 11 12 15 18 21 22 23 24 26 26 27 26 27 26 25 24 24 23 23 22 22 22 22 23 24 24 25 26 27 27
13 14 13 13 15 16 18 20 20 21 24 25 25 25 28 25 25 25 24 24 24 24 24 24 25 26 27 28 29 29 31 32
Wind_Direction
270 259 252 247 228 221 217 220 230 232 222 191 188 189 190 190 191 187 185 184 181 179 177 175 175 176 175 177 177 183 183 180
272 257 249 246 234 221 217 222 227 216 210 201 193 192 190 191 190 189 188 185 183 181 181 177 177 175 176 178 179 181 184 184
272 260 249 240 241 218 222 226 226 227 220 205 201 195 190 190 192 189 188 184 183 181 180 180 178 178 177 177 184 192 192 198
274 259 246 236 233 222 225 225 224 226 222 208 200 196 190 189 188 188 187 186 184 183 181 181 182 184 187 191 202 198 201 207
276 258 241 232 228 227 220 221 223 225 228 212 194 194 187 185 186 189 188 186 185 185 184 187 191 193 195 208 204 213 219 218
281 257 238 233 229 223 221 224 228 223 221 196 193 189 191 189 189 189 190 190 189 190 191 195 197 200 209 211 220 227 229 232
282 256 238 231 228 223 222 229 229 219 210 192 191 191 190 192 191 190 189 190 191 191 196 198 199 205 213 217 224 229 227 223
279 260 237 230 226 223 225 230 222 212 200 192 193 199 198 197 193 194 193 192 194 195 196 201 207 213 217 220 224 224 225 224
276 262 237 231 225 220 222 217 204 194 189 188 190 191 193 192 192 190 189 193 195 196 198 206 213 215 222 224 224 227 228 227
270 259 235 227 218 211 208 194 188 182 180 183 190 191 190 189 189 189 190 193 194 199 206 214 215 220 223 226 230 230 229 229
267 253 227 215 209 205 195 178 174 176 181 188 188 187 185 187 189 190 194 199 205 211 211 211 215 220 222 226 231 232 234 234
264 246 219 207 203 194 188 185 183 189 190 186 183 186 189 196 197 195 196 200 199 202 206 210 213 218 224 229 234 237 240 240
256 229 209 203 201 191 190 194 189 187 187 190 187 185 185 185 188 195 195 197 200 202 206 211 215 220 233 236 242 244 245 246
244 216 204 200 197 196 196 190 191 188 186 184 183 187 189 190 190 193 198 201 201 208 213 217 224 228 233 234 244 249 251 251
225 209 203 198 198 199 197 197 194 191 191 191 189 190 192 194 195 199 204 205 209 215 220 223 225 228 233 242 249 257 255 258
213 205 204 204 204 202 199 198 194 192 193 192 195 198 199 200 204 206 206 210 216 220 221 222 226 233 239 247 255 263 265 268
208 203 197 201 203 201 206 199 201 200 201 199 198 202 204 207 208 210 210 212 218 218 219 224 233 241 248 256 260 262 266 267
206 199 198 197 198 199 200 202 204 207 206 206 207 208 207 208 209 209 212 216 218 222 226 234 241 248 254 260 262 265 266 267
204 200 195 190 191 192 195 196 201 202 203 204 204 209 208 208 209 212 216 220 225 230 236 242 247 252 258 262 265 267 268 269
204 202 198 194 194 193 195 198 199 202 202 203 206 208 206 211 214 217 221 226 232 237 242 248 252 257 261 265 268 269 270 271